Wetterdaten: Dienstag, 15.03.2016
Datum Zeit Temperatur Luftfeuchte Luftdruck Regen Wind Richtung Richtung Sonnenschein ET UV Solar Taupunkt Windchill Windben
15.03.2016 00:00 -0,6 C 78 % 1029,0 hPa 0,0 l/m 0,0 km/h (0 Bft) SW 223 0 min 0,000 mm 0,0 UV-I 0 W/m -3,9 C -0,6 C 0,0 km/h (0 Bft)
15.03.2016 00:05 -0,6 C 78 % 1029,0 hPa 0,0 l/m 0,0 km/h (0 Bft) SW 223 0 min 0,000 mm 0,0 UV-I 0 W/m -3,9 C -0,6 C 0,0 km/h (0 Bft)
15.03.2016 00:10 -0,7 C 79 % 1028,9 hPa 0,0 l/m 0,0 km/h (0 Bft) SW 223 0 min 0,000 mm 0,0 UV-I 0 W/m -3,9 C -0,7 C 0,0 km/h (0 Bft)
15.03.2016 00:15 -0,8 C 79 % 1028,9 hPa 0,0 l/m 0,0 km/h (0 Bft) SW 223 0 min 0,000 mm 0,0 UV-I 0 W/m -4,0 C -0,8 C 0,0 km/h (0 Bft)
15.03.2016 00:20 -0,9 C 80 % 1028,9 hPa 0,0 l/m 0,0 km/h (0 Bft) SW 223 0 min 0,000 mm 0,0 UV-I 0 W/m -3,9 C -0,9 C 0,0 km/h (0 Bft)
15.03.2016 00:25 -1,0 C 79 % 1028,9 hPa 0,0 l/m 0,0 km/h (0 Bft) SW 223 0 min 0,000 mm 0,0 UV-I 0 W/m -4,2 C -1,0 C 0,0 km/h (0 Bft)
15.03.2016 00:30 -1,1 C 80 % 1028,9 hPa 0,0 l/m 0,0 km/h (0 Bft) SW 223 0 min 0,000 mm 0,0 UV-I 0 W/m -4,1 C -1,1 C 0,0 km/h (0 Bft)
15.03.2016 00:35 -1,2 C 81 % 1028,9 hPa 0,0 l/m 0,0 km/h (0 Bft) SW 223 0 min 0,000 mm 0,0 UV-I 0 W/m -4,0 C -1,2 C 0,0 km/h (0 Bft)
15.03.2016 00:40 -1,3 C 82 % 1029,0 hPa 0,0 l/m 0,0 km/h (0 Bft) SW 223 0 min 0,000 mm 0,0 UV-I 0 W/m -4,0 C -1,3 C 0,0 km/h (0 Bft)
15.03.2016 00:45 -1,3 C 81 % 1028,9 hPa 0,0 l/m 0,0 km/h (0 Bft) SW 223 0 min 0,000 mm 0,0 UV-I 0 W/m -4,1 C -1,3 C 0,0 km/h (0 Bft)
15.03.2016 00:50 -1,4 C 82 % 1028,9 hPa 0,0 l/m 0,0 km/h (0 Bft) SW 223 0 min 0,000 mm 0,0 UV-I 0 W/m -4,1 C -1,4 C 0,0 km/h (0 Bft)
15.03.2016 00:55 -1,5 C 82 % 1028,9 hPa 0,0 l/m 0,0 km/h (0 Bft) SW 223 0 min 0,000 mm 0,0 UV-I 0 W/m -4,2 C -1,5 C 0,0 km/h (0 Bft)
15.03.2016 01:00 -1,6 C 81 % 1028,9 hPa 0,0 l/m 0,0 km/h (0 Bft) SW 223 0 min 0,000 mm 0,0 UV-I 0 W/m -4,4 C -1,6 C 0,0 km/h (0 Bft)
15.03.2016 01:05 -1,7 C 82 % 1029,0 hPa 0,0 l/m 0,0 km/h (0 Bft) SW 223 0 min 0,000 mm 0,0 UV-I 0 W/m -4,4 C -1,7 C 0,0 km/h (0 Bft)
15.03.2016 01:10 -1,7 C 83 % 1028,9 hPa 0,0 l/m 0,0 km/h (0 Bft) SW 223 0 min 0,000 mm 0,0 UV-I 0 W/m -4,2 C -1,7 C 0,0 km/h (0 Bft)
15.03.2016 01:15 -1,8 C 83 % 1028,8 hPa 0,0 l/m 0,0 km/h (0 Bft) SW 223 0 min 0,000 mm 0,0 UV-I 0 W/m -4,3 C -1,8 C 0,0 km/h (0 Bft)
15.03.2016 01:20 -1,8 C 83 % 1028,9 hPa 0,0 l/m 0,0 km/h (0 Bft) SW 223 0 min 0,000 mm 0,0 UV-I 0 W/m -4,3 C -1,8 C 0,0 km/h (0 Bft)
15.03.2016 01:25 -1,8 C 83 % 1028,9 hPa 0,0 l/m 0,0 km/h (0 Bft) SW 223 0 min 0,000 mm 0,0 UV-I 0 W/m -4,3 C -1,8 C 0,0 km/h (0 Bft)
15.03.2016 01:30 -1,8 C 83 % 1028,9 hPa 0,0 l/m 0,0 km/h (0 Bft) SW 223 0 min 0,000 mm 0,0 UV-I 0 W/m -4,3 C -1,8 C 0,0 km/h (0 Bft)
15.03.2016 01:35 -1,9 C 83 % 1028,8 hPa 0,0 l/m 0,0 km/h (0 Bft) SW 223 0 min 0,000 mm 0,0 UV-I 0 W/m -4,4 C -1,9 C 0,0 km/h (0 Bft)
15.03.2016 01:40 -1,9 C 83 % 1028,8 hPa 0,0 l/m 0,0 km/h (0 Bft) SW 223 0 min 0,000 mm 0,0 UV-I 0 W/m -4,4 C -1,9 C 0,0 km/h (0 Bft)
15.03.2016 01:45 -1,9 C 84 % 1028,7 hPa 0,0 l/m 0,0 km/h (0 Bft) W-SW 250 0 min 0,000 mm 0,0 UV-I 0 W/m -4,2 C -1,9 C 0,0 km/h (0 Bft)
15.03.2016 01:50 -1,9 C 84 % 1028,7 hPa 0,0 l/m 0,0 km/h (0 Bft) W 273 0 min 0,000 mm 0,0 UV-I 0 W/m -4,2 C -1,9 C 0,0 km/h (0 Bft)
15.03.2016 01:55 -1,9 C 83 % 1028,6 hPa 0,0 l/m 0,0 km/h (0 Bft) W 273 0 min 0,000 mm 0,0 UV-I 0 W/m -4,4 C -1,9 C 0,0 km/h (0 Bft)
15.03.2016 02:00 -1,9 C 84 % 1028,6 hPa 0,0 l/m 0,0 km/h (0 Bft) W 273 0 min 0,000 mm 0,0 UV-I 0 W/m -4,2 C -1,9 C 0,0 km/h (0 Bft)
15.03.2016 02:05 -1,9 C 84 % 1028,5 hPa 0,0 l/m 0,0 km/h (0 Bft) W 273 0 min 0,000 mm 0,0 UV-I 0 W/m -4,2 C -1,9 C 0,0 km/h (0 Bft)
15.03.2016 02:10 -1,9 C 84 % 1028,5 hPa 0,0 l/m 0,0 km/h (0 Bft) W 273 0 min 0,000 mm 0,0 UV-I 0 W/m -4,2 C -1,9 C 0,0 km/h (0 Bft)
15.03.2016 02:15 -1,9 C 84 % 1028,5 hPa 0,0 l/m 0,0 km/h (0 Bft) W 273 0 min 0,000 mm 0,0 UV-I 0 W/m -4,2 C -1,9 C 0,0 km/h (0 Bft)
15.03.2016 02:20 -1,9 C 84 % 1028,4 hPa 0,0 l/m 0,0 km/h (0 Bft) W 273 0 min 0,000 mm 0,0 UV-I 0 W/m -4,2 C -1,9 C 0,0 km/h (0 Bft)
15.03.2016 02:25 -1,9 C 84 % 1028,4 hPa 0,0 l/m 0,0 km/h (0 Bft) W 273 0 min 0,000 mm 0,0 UV-I 0 W/m -4,2 C -1,9 C 0,0 km/h (0 Bft)
15.03.2016 02:30 -1,9 C 83 % 1028,4 hPa 0,0 l/m 0,0 km/h (0 Bft) W 273 0 min 0,000 mm 0,0 UV-I 0 W/m -4,4 C -1,9 C 0,0 km/h (0 Bft)
15.03.2016 02:35 -1,9 C 84 % 1028,4 hPa 0,0 l/m 0,0 km/h (0 Bft) W 273 0 min 0,000 mm 0,0 UV-I 0 W/m -4,2 C -1,9 C 0,0 km/h (0 Bft)
15.03.2016 02:40 -2,0 C 84 % 1028,2 hPa 0,0 l/m 0,0 km/h (0 Bft) W 273 0 min 0,000 mm 0,0 UV-I 0 W/m -4,3 C -2,0 C 0,0 km/h (0 Bft)
15.03.2016 02:45 -2,1 C 84 % 1028,2 hPa 0,0 l/m 0,0 km/h (0 Bft) W 273 0 min 0,000 mm 0,0 UV-I 0 W/m -4,4 C -2,1 C 0,0 km/h (0 Bft)
15.03.2016 02:50 -2,2 C 83 % 1028,1 hPa 0,0 l/m 0,0 km/h (0 Bft) W 273 0 min 0,000 mm 0,0 UV-I 0 W/m -4,7 C -2,2 C 0,0 km/h (0 Bft)
15.03.2016 02:55 -2,3 C 84 % 1028,0 hPa 0,0 l/m 0,0 km/h (0 Bft) W 273 0 min 0,000 mm 0,0 UV-I 0 W/m -4,6 C -2,3 C 0,0 km/h (0 Bft)
15.03.2016 03:00 -2,3 C 85 % 1028,0 hPa 0,0 l/m 0,0 km/h (0 Bft) W 273 0 min 0,000 mm 0,0 UV-I 0 W/m -4,5 C -2,3 C 0,0 km/h (0 Bft)
15.03.2016 03:05 -2,4 C 85 % 1027,9 hPa 0,0 l/m 0,0 km/h (0 Bft) W 273 0 min 0,000 mm 0,0 UV-I 0 W/m -4,6 C -2,4 C 0,0 km/h (0 Bft)
15.03.2016 03:10 -2,4 C 85 % 1027,9 hPa 0,0 l/m 0,0 km/h (0 Bft) W 273 0 min 0,000 mm 0,0 UV-I 0 W/m -4,6 C -2,4 C 0,0 km/h (0 Bft)
15.03.2016 03:15 -2,4 C 85 % 1027,9 hPa 0,0 l/m 0,0 km/h (0 Bft) W 273 0 min 0,000 mm 0,0 UV-I 0 W/m -4,6 C -2,4 C 0,0 km/h (0 Bft)
15.03.2016 03:20 -2,3 C 85 % 1027,8 hPa 0,0 l/m 0,0 km/h (0 Bft) W 273 0 min 0,000 mm 0,0 UV-I 0 W/m -4,5 C -2,3 C 0,0 km/h (0 Bft)
15.03.2016 03:25 -2,4 C 85 % 1027,8 hPa 0,0 l/m 0,0 km/h (0 Bft) W 273 0 min 0,000 mm 0,0 UV-I 0 W/m -4,6 C -2,4 C 0,0 km/h (0 Bft)
15.03.2016 03:30 -2,6 C 85 % 1027,9 hPa 0,0 l/m 0,0 km/h (0 Bft) W 273 0 min 0,000 mm 0,0 UV-I 0 W/m -4,8 C -2,6 C 0,0 km/h (0 Bft)
15.03.2016 03:35 -2,6 C 84 % 1027,9 hPa 0,0 l/m 0,0 km/h (0 Bft) W 273 0 min 0,000 mm 0,0 UV-I 0 W/m -4,9 C -2,6 C 0,0 km/h (0 Bft)
15.03.2016 03:40 -2,7 C 84 % 1028,0 hPa 0,0 l/m 0,0 km/h (0 Bft) W 273 0 min 0,000 mm 0,0 UV-I 0 W/m -5,0 C -2,7 C 0,0 km/h (0 Bft)
15.03.2016 03:45 -2,7 C 85 % 1028,0 hPa 0,0 l/m 0,0 km/h (0 Bft) W 273 0 min 0,000 mm 0,0 UV-I 0 W/m -4,9 C -2,7 C 0,0 km/h (0 Bft)
15.03.2016 03:50 -2,8 C 86 % 1028,0 hPa 0,0 l/m 0,0 km/h (0 Bft) W 273 0 min 0,000 mm 0,0 UV-I 0 W/m -4,8 C -2,8 C 0,0 km/h (0 Bft)
15.03.2016 03:55 -2,8 C 86 % 1028,0 hPa 0,0 l/m 0,0 km/h (0 Bft) W 273 0 min 0,000 mm 0,0 UV-I 0 W/m -4,8 C -2,8 C 0,0 km/h (0 Bft)
15.03.2016 04:00 -2,9 C 86 % 1028,0 hPa 0,0 l/m 0,0 km/h (0 Bft) W 273 0 min 0,000 mm 0,0 UV-I 0 W/m -4,9 C -2,9 C 0,0 km/h (0 Bft)
15.03.2016 04:05 -2,9 C 86 % 1027,9 hPa 0,0 l/m 0,0 km/h (0 Bft) N 0 0 min 0,000 mm 0,0 UV-I 0 W/m -4,9 C -2,9 C 0,0 km/h (0 Bft)
15.03.2016 04:10 -2,9 C 87 % 1027,9 hPa 0,0 l/m 0,0 km/h (0 Bft) N 0 0 min 0,000 mm 0,0 UV-I 0 W/m -4,8 C -2,9 C 0,0 km/h (0 Bft)
15.03.2016 04:15 -2,8 C 87 % 1027,9 hPa 0,0 l/m 0,0 km/h (0 Bft) N 0 0 min 0,000 mm 0,0 UV-I 0 W/m -4,7 C -2,8 C 0,0 km/h (0 Bft)
15.03.2016 04:20 -2,8 C 87 % 1027,8 hPa 0,0 l/m 0,0 km/h (0 Bft) N 0 0 min 0,000 mm 0,0 UV-I 0 W/m -4,7 C -2,8 C 0,0 km/h (0 Bft)
15.03.2016 04:25 -2,6 C 87 % 1027,7 hPa 0,0 l/m 0,0 km/h (0 Bft) N 0 0 min 0,000 mm 0,0 UV-I 0 W/m -4,5 C -2,6 C 0,0 km/h (0 Bft)
15.03.2016 04:30 -2,5 C 87 % 1027,7 hPa 0,0 l/m 0,0 km/h (0 Bft) N 0 0 min 0,000 mm 0,0 UV-I 0 W/m -4,4 C -2,5 C 0,0 km/h (0 Bft)
15.03.2016 04:35 -2,4 C 87 % 1027,7 hPa 0,0 l/m 0,0 km/h (0 Bft) N 0 0 min 0,000 mm 0,0 UV-I 0 W/m -4,3 C -2,4 C 0,0 km/h (0 Bft)
15.03.2016 04:40 -2,3 C 87 % 1027,7 hPa 0,0 l/m 0,0 km/h (0 Bft) N 0 0 min 0,000 mm 0,0 UV-I 0 W/m -4,2 C -2,3 C 0,0 km/h (0 Bft)
15.03.2016 04:45 -2,2 C 86 % 1027,6 hPa 0,0 l/m 0,0 km/h (0 Bft) N 0 0 min 0,000 mm 0,0 UV-I 0 W/m -4,2 C -2,2 C 0,0 km/h (0 Bft)
15.03.2016 04:50 -2,2 C 86 % 1027,6 hPa 0,0 l/m 0,0 km/h (0 Bft) N 0 0 min 0,000 mm 0,0 UV-I 0 W/m -4,2 C -2,2 C 0,0 km/h (0 Bft)
15.03.2016 04:55 -2,2 C 86 % 1027,5 hPa 0,0 l/m 0,0 km/h (0 Bft) N 0 0 min 0,000 mm 0,0 UV-I 0 W/m -4,2 C -2,2 C 0,0 km/h (0 Bft)
15.03.2016 05:00 -2,2 C 86 % 1027,5 hPa 0,0 l/m 0,0 km/h (0 Bft) N 0 0 min 0,000 mm 0,0 UV-I 0 W/m -4,2 C -2,2 C 0,0 km/h (0 Bft)
15.03.2016 05:05 -2,2 C 86 % 1027,3 hPa 0,0 l/m 0,0 km/h (0 Bft) N 0 0 min 0,000 mm 0,0 UV-I 0 W/m -4,2 C -2,2 C 0,0 km/h (0 Bft)
15.03.2016 05:10 -2,2 C 86 % 1027,3 hPa 0,0 l/m 0,0 km/h (0 Bft) N 0 0 min 0,000 mm 0,0 UV-I 0 W/m -4,2 C -2,2 C 0,0 km/h (0 Bft)
15.03.2016 05:15 -2,3 C 86 % 1027,3 hPa 0,0 l/m 0,0 km/h (0 Bft) N 0 0 min 0,000 mm 0,0 UV-I 0 W/m -4,3 C -2,3 C 0,0 km/h (0 Bft)
15.03.2016 05:20 -2,3 C 86 % 1027,4 hPa 0,0 l/m 0,0 km/h (0 Bft) N 0 0 min 0,000 mm 0,0 UV-I 0 W/m -4,3 C -2,3 C 0,0 km/h (0 Bft)
15.03.2016 05:25 -2,3 C 86 % 1027,4 hPa 0,0 l/m 0,0 km/h (0 Bft) N 0 0 min 0,000 mm 0,0 UV-I 0 W/m -4,3 C -2,3 C 0,0 km/h (0 Bft)
15.03.2016 05:30 -2,3 C 87 % 1027,3 hPa 0,0 l/m 0,0 km/h (0 Bft) N 0 0 min 0,000 mm 0,0 UV-I 0 W/m -4,2 C -2,3 C 0,0 km/h (0 Bft)
15.03.2016 05:35 -2,2 C 87 % 1027,3 hPa 0,0 l/m 0,0 km/h (0 Bft) N 0 0 min 0,000 mm 0,0 UV-I 0 W/m -4,1 C -2,2 C 0,0 km/h (0 Bft)
15.03.2016 05:40 -2,2 C 87 % 1027,3 hPa 0,0 l/m 0,0 km/h (0 Bft) N 0 0 min 0,000 mm 0,0 UV-I 0 W/m -4,1 C -2,2 C 0,0 km/h (0 Bft)
15.03.2016 05:45 -2,2 C 87 % 1027,3 hPa 0,0 l/m 0,0 km/h (0 Bft) N 0 0 min 0,000 mm 0,0 UV-I 0 W/m -4,1 C -2,2 C 0,0 km/h (0 Bft)
15.03.2016 05:50 -2,2 C 87 % 1027,3 hPa 0,0 l/m 0,0 km/h (0 Bft) N 0 0 min 0,000 mm 0,0 UV-I 0 W/m -4,1 C -2,2 C 0,0 km/h (0 Bft)
15.03.2016 05:55 -2,2 C 87 % 1027,3 hPa 0,0 l/m 0,0 km/h (0 Bft) N 0 0 min 0,000 mm 0,0 UV-I 0 W/m -4,1 C -2,2 C 0,0 km/h (0 Bft)
15.03.2016 06:00 -2,2 C 87 % 1027,3 hPa 0,0 l/m 0,0 km/h (0 Bft) N 0 0 min 0,000 mm 0,0 UV-I 0 W/m -4,1 C -2,2 C 0,0 km/h (0 Bft)
15.03.2016 06:05 -2,1 C 87 % 1027,4 hPa 0,0 l/m 0,0 km/h (0 Bft) N 0 0 min 0,000 mm 0,0 UV-I 0 W/m -4,0 C -2,1 C 0,0 km/h (0 Bft)
15.03.2016 06:10 -2,1 C 87 % 1027,5 hPa 0,0 l/m 0,0 km/h (0 Bft) N 0 0 min 0,000 mm 0,0 UV-I 0 W/m -4,0 C -2,1 C 0,0 km/h (0 Bft)
15.03.2016 06:15 -2,1 C 87 % 1027,6 hPa 0,0 l/m 0,0 km/h (0 Bft) N 0 0 min 0,000 mm 0,0 UV-I 0 W/m -4,0 C -2,1 C 0,0 km/h (0 Bft)
15.03.2016 06:20 -2,1 C 87 % 1027,5 hPa 0,0 l/m 0,0 km/h (0 Bft) N 0 0 min 0,000 mm 0,0 UV-I 0 W/m -4,0 C -2,1 C 0,0 km/h (0 Bft)
15.03.2016 06:25 -2,1 C 87 % 1027,4 hPa 0,0 l/m 0,0 km/h (0 Bft) N 0 0 min 0,000 mm 0,0 UV-I 0 W/m -4,0 C -2,1 C 0,0 km/h (0 Bft)
15.03.2016 06:30 -2,1 C 87 % 1027,3 hPa 0,0 l/m 0,0 km/h (0 Bft) N 0 0 min 0,000 mm 0,0 UV-I 0 W/m -4,0 C -2,1 C 0,0 km/h (0 Bft)
15.03.2016 06:35 -2,1 C 87 % 1027,2 hPa 0,0 l/m 0,0 km/h (0 Bft) N 0 0 min 0,000 mm 0,0 UV-I 0 W/m -4,0 C -2,1 C 0,0 km/h (0 Bft)
15.03.2016 06:40 -2,1 C 87 % 1027,2 hPa 0,0 l/m 0,0 km/h (0 Bft) N 0 0 min 0,000 mm 0,0 UV-I 0 W/m -4,0 C -2,1 C 0,0 km/h (0 Bft)
15.03.2016 06:45 -2,1 C 87 % 1027,2 hPa 0,0 l/m 0,0 km/h (0 Bft) N 0 0 min 0,000 mm 0,0 UV-I 0 W/m -4,0 C -2,1 C 0,0 km/h (0 Bft)
15.03.2016 06:50 -2,1 C 87 % 1027,1 hPa 0,0 l/m 0,0 km/h (0 Bft) N 0 0 min 0,000 mm 0,0 UV-I 5 W/m -4,0 C -2,1 C 0,0 km/h (0 Bft)
15.03.2016 06:55 -2,0 C 87 % 1027,1 hPa 0,0 l/m 0,0 km/h (0 Bft) N 0 0 min 0,000 mm 0,0 UV-I 10 W/m -3,9 C -2,0 C 0,0 km/h (0 Bft)
15.03.2016 07:00 -1,9 C 87 % 1027,1 hPa 0,0 l/m 0,0 km/h (0 Bft) N 0 0 min 0,000 mm 0,0 UV-I 15 W/m -3,8 C -1,9 C 0,0 km/h (0 Bft)
15.03.2016 07:05 -1,9 C 87 % 1027,0 hPa 0,0 l/m 0,0 km/h (0 Bft) N 0 0 min 0,000 mm 0,0 UV-I 19 W/m -3,8 C -1,9 C 0,0 km/h (0 Bft)
15.03.2016 07:10 -1,8 C 87 % 1026,9 hPa 0,0 l/m 0,0 km/h (0 Bft) N 0 0 min 0,000 mm 0,0 UV-I 20 W/m -3,7 C -1,8 C 0,0 km/h (0 Bft)
15.03.2016 07:15 -1,8 C 87 % 1026,9 hPa 0,0 l/m 0,0 km/h (0 Bft) N 0 0 min 0,000 mm 0,0 UV-I 23 W/m -3,7 C -1,8 C 0,0 km/h (0 Bft)
15.03.2016 07:20 -1,7 C 87 % 1026,8 hPa 0,0 l/m 0,0 km/h (0 Bft) N 0 0 min 0,000 mm 0,0 UV-I 27 W/m -3,6 C -1,7 C 0,0 km/h (0 Bft)
15.03.2016 07:25 -1,6 C 87 % 1026,9 hPa 0,0 l/m 0,0 km/h (0 Bft) N 0 0 min 0,000 mm 0,0 UV-I 29 W/m -3,5 C -1,6 C 0,0 km/h (0 Bft)
15.03.2016 07:30 -1,6 C 87 % 1026,9 hPa 0,0 l/m 0,0 km/h (0 Bft) N 0 0 min 0,000 mm 0,0 UV-I 31 W/m -3,5 C -1,6 C 0,0 km/h (0 Bft)
15.03.2016 07:35 -1,5 C 87 % 1026,9 hPa 0,0 l/m 0,0 km/h (0 Bft) N 0 0 min 0,000 mm 0,0 UV-I 37 W/m -3,4 C -1,5 C 0,0 km/h (0 Bft)
15.03.2016 07:40 -1,5 C 87 % 1026,8 hPa 0,0 l/m 0,0 km/h (0 Bft) N 0 0 min 0,000 mm 0,0 UV-I 52 W/m -3,4 C -1,5 C 0,0 km/h (0 Bft)
15.03.2016 07:45 -1,4 C 87 % 1026,7 hPa 0,0 l/m 0,0 km/h (0 Bft) N 0 0 min 0,000 mm 0,0 UV-I 68 W/m -3,3 C -1,4 C 0,0 km/h (0 Bft)
15.03.2016 07:50 -1,3 C 87 % 1026,5 hPa 0,0 l/m 0,0 km/h (0 Bft) N 0 0 min 0,000 mm 0,0 UV-I 91 W/m -3,2 C -1,3 C 0,0 km/h (0 Bft)
15.03.2016 07:55 -1,0 C 87 % 1026,6 hPa 0,0 l/m 0,0 km/h (0 Bft) N 0 5 min 0,000 mm 0,0 UV-I 114 W/m -2,9 C -1,0 C 0,0 km/h (0 Bft)
15.03.2016 08:00 -0,7 C 86 % 1026,7 hPa 0,0 l/m 0,0 km/h (0 Bft) N 0 5 min 0,025 mm 0,0 UV-I 126 W/m -2,7 C -0,7 C 0,0 km/h (0 Bft)
15.03.2016 08:05 -0,4 C 85 % 1026,7 hPa 0,0 l/m 0,0 km/h (0 Bft) N 0 5 min 0,000 mm 0,1 UV-I 134 W/m -2,6 C -0,4 C 0,0 km/h (0 Bft)
15.03.2016 08:10 -0,3 C 84 % 1026,5 hPa 0,0 l/m 0,0 km/h (0 Bft) N 0 5 min 0,000 mm 0,5 UV-I 144 W/m -2,7 C -0,3 C 0,0 km/h (0 Bft)
15.03.2016 08:15 -0,1 C 84 % 1026,6 hPa 0,0 l/m 0,0 km/h (0 Bft) N 0 5 min 0,000 mm 0,5 UV-I 138 W/m -2,5 C -0,1 C 0,0 km/h (0 Bft)
15.03.2016 08:20 0,2 C 84 % 1026,5 hPa 0,0 l/m 0,0 km/h (0 Bft) N 0 0 min 0,000 mm 0,5 UV-I 140 W/m -2,2 C 0,2 C 0,0 km/h (0 Bft)
15.03.2016 08:25 0,4 C 84 % 1026,3 hPa 0,0 l/m 0,0 km/h (0 Bft) N 0 5 min 0,000 mm 0,6 UV-I 168 W/m -2,0 C 0,4 C 0,0 km/h (0 Bft)
15.03.2016 08:30 0,8 C 82 % 1026,3 hPa 0,0 l/m 0,0 km/h (0 Bft) N 0 0 min 0,000 mm 0,6 UV-I 147 W/m -1,9 C 0,8 C 0,0 km/h (0 Bft)
15.03.2016 08:35 0,9 C 82 % 1026,2 hPa 0,0 l/m 0,0 km/h (0 Bft) N 0 0 min 0,000 mm 0,6 UV-I 99 W/m -1,8 C 0,9 C 0,0 km/h (0 Bft)
15.03.2016 08:40 0,8 C 81 % 1026,1 hPa 0,0 l/m 0,0 km/h (0 Bft) N 0 0 min 0,000 mm 0,6 UV-I 104 W/m -2,1 C 0,8 C 0,0 km/h (0 Bft)
15.03.2016 08:45 0,7 C 81 % 1026,1 hPa 0,0 l/m 0,0 km/h (0 Bft) N 0 0 min 0,000 mm 0,6 UV-I 117 W/m -2,2 C 0,7 C 0,0 km/h (0 Bft)
15.03.2016 08:50 0,8 C 82 % 1026,1 hPa 0,0 l/m 0,0 km/h (0 Bft) N 0 0 min 0,000 mm 0,6 UV-I 119 W/m -1,9 C 0,8 C 0,0 km/h (0 Bft)
15.03.2016 08:55 0,9 C 81 % 1026,1 hPa 0,0 l/m 0,0 km/h (0 Bft) N 0 0 min 0,000 mm 0,6 UV-I 107 W/m -2,0 C 0,9 C 0,0 km/h (0 Bft)
15.03.2016 09:00 1,1 C 81 % 1026,0 hPa 0,0 l/m 0,0 km/h (0 Bft) N 0 0 min 0,051 mm 0,6 UV-I 108 W/m -1,8 C 1,1 C 0,0 km/h (0 Bft)
15.03.2016 09:05 1,1 C 81 % 1025,9 hPa 0,0 l/m 0,0 km/h (0 Bft) N 0 0 min 0,000 mm 0,6 UV-I 95 W/m -1,8 C 1,1 C 0,0 km/h (0 Bft)
15.03.2016 09:10 1,2 C 81 % 1025,9 hPa 0,0 l/m 0,0 km/h (0 Bft) N 0 0 min 0,000 mm 0,6 UV-I 101 W/m -1,7 C 1,2 C 0,0 km/h (0 Bft)
15.03.2016 09:15 1,3 C 80 % 1026,0 hPa 0,0 l/m 0,0 km/h (0 Bft) N 0 0 min 0,000 mm 0,6 UV-I 96 W/m -1,8 C 1,3 C 0,0 km/h (0 Bft)
15.03.2016 09:20 1,4 C 81 % 1026,0 hPa 0,0 l/m 0,0 km/h (0 Bft) N 0 0 min 0,000 mm 0,6 UV-I 92 W/m -1,5 C 1,4 C 0,0 km/h (0 Bft)
15.03.2016 09:25 1,6 C 81 % 1026,0 hPa 0,0 l/m 0,0 km/h (0 Bft) N 0 0 min 0,000 mm 0,6 UV-I 111 W/m -1,3 C 1,6 C 0,0 km/h (0 Bft)
15.03.2016 09:30 1,7 C 80 % 1026,0 hPa 0,0 l/m 0,0 km/h (0 Bft) N 0 0 min 0,000 mm 0,6 UV-I 116 W/m -1,4 C 1,7 C 0,0 km/h (0 Bft)
15.03.2016 09:35 1,9 C 80 % 1025,8 hPa 0,0 l/m 0,0 km/h (0 Bft) N 0 0 min 0,000 mm 0,7 UV-I 122 W/m -1,2 C 1,9 C 0,0 km/h (0 Bft)
15.03.2016 09:40 2,1 C 80 % 1025,8 hPa 0,0 l/m 0,0 km/h (0 Bft) N 0 0 min 0,000 mm 0,7 UV-I 122 W/m -1,0 C 2,1 C 0,0 km/h (0 Bft)
15.03.2016 09:45 2,2 C 79 % 1025,9 hPa 0,0 l/m 0,0 km/h (0 Bft) N 0 0 min 0,000 mm 0,7 UV-I 135 W/m -1,1 C 2,2 C 0,0 km/h (0 Bft)
15.03.2016 09:50 2,4 C 79 % 1025,9 hPa 0,0 l/m 0,0 km/h (0 Bft) N 0 0 min 0,000 mm 0,7 UV-I 124 W/m -0,9 C 2,4 C 0,0 km/h (0 Bft)
15.03.2016 09:55 2,6 C 78 % 1026,0 hPa 0,0 l/m 0,0 km/h (0 Bft) N 0 0 min 0,000 mm 0,7 UV-I 117 W/m -0,8 C 2,6 C 0,0 km/h (0 Bft)
15.03.2016 10:00 2,7 C 78 % 1025,9 hPa 0,0 l/m 0,0 km/h (0 Bft) N 0 0 min 0,051 mm 0,9 UV-I 153 W/m -0,7 C 2,7 C 0,0 km/h (0 Bft)
15.03.2016 10:05 2,9 C 78 % 1025,7 hPa 0,0 l/m 0,0 km/h (0 Bft) N 0 0 min 0,000 mm 0,9 UV-I 155 W/m -0,5 C 2,9 C 0,0 km/h (0 Bft)
15.03.2016 10:10 3,1 C 78 % 1025,4 hPa 0,0 l/m 0,0 km/h (0 Bft) N 0 0 min 0,000 mm 0,8 UV-I 139 W/m -0,4 C 3,1 C 0,0 km/h (0 Bft)
15.03.2016 10:15 3,3 C 78 % 1025,4 hPa 0,0 l/m 0,0 km/h (0 Bft) W-NW 287 0 min 0,000 mm 0,8 UV-I 135 W/m -0,2 C 3,3 C 0,0 km/h (0 Bft)
15.03.2016 10:20 3,5 C 77 % 1025,4 hPa 0,0 l/m 0,0 km/h (0 Bft) W-NW 290 0 min 0,000 mm 0,8 UV-I 131 W/m -0,1 C 3,5 C 0,0 km/h (0 Bft)
15.03.2016 10:25 3,7 C 77 % 1025,4 hPa 0,0 l/m 0,0 km/h (0 Bft) W-NW 290 0 min 0,000 mm 0,9 UV-I 142 W/m 0,1 C 3,7 C 0,0 km/h (0 Bft)
15.03.2016 10:30 3,8 C 78 % 1025,4 hPa 0,0 l/m 0,0 km/h (0 Bft) W-NW 290 0 min 0,000 mm 0,9 UV-I 142 W/m 0,3 C 3,8 C 0,0 km/h (0 Bft)
15.03.2016 10:35 4,0 C 77 % 1025,5 hPa 0,0 l/m 0,0 km/h (0 Bft) W-NW 290 0 min 0,000 mm 0,9 UV-I 137 W/m 0,3 C 4,0 C 0,0 km/h (0 Bft)
15.03.2016 10:40 4,2 C 77 % 1025,4 hPa 0,0 l/m 0,0 km/h (0 Bft) W-NW 290 0 min 0,000 mm 0,9 UV-I 138 W/m 0,5 C 4,2 C 0,0 km/h (0 Bft)
15.03.2016 10:45 4,4 C 76 % 1025,4 hPa 0,0 l/m 0,0 km/h (0 Bft) W-NW 290 0 min 0,000 mm 0,8 UV-I 131 W/m 0,5 C 4,4 C 0,0 km/h (0 Bft)
15.03.2016 10:50 4,6 C 76 % 1025,4 hPa 0,0 l/m 0,0 km/h (0 Bft) W-NW 290 0 min 0,000 mm 0,9 UV-I 144 W/m 0,7 C 4,6 C 0,0 km/h (0 Bft)
15.03.2016 10:55 4,8 C 75 % 1025,5 hPa 0,0 l/m 0,0 km/h (0 Bft) O-SO 107 0 min 0,000 mm 0,9 UV-I 138 W/m 0,8 C 4,8 C 0,0 km/h (0 Bft)
15.03.2016 11:00 5,0 C 75 % 1025,5 hPa 0,0 l/m 0,3 km/h (0 Bft) O 79 0 min 0,000 mm 0,9 UV-I 125 W/m 0,9 C 5,0 C 3,2 km/h (1 Bft)
15.03.2016 11:05 5,2 C 75 % 1025,5 hPa 0,0 l/m 1,3 km/h (1 Bft) O-NO 63 0 min 0,051 mm 0,8 UV-I 108 W/m 1,1 C 5,2 C 11,3 km/h (2 Bft)
15.03.2016 11:10 5,3 C 75 % 1025,6 hPa 0,0 l/m 2,1 km/h (1 Bft) O-NO 64 0 min 0,000 mm 0,9 UV-I 129 W/m 1,2 C 5,3 C 9,7 km/h (2 Bft)
15.03.2016 11:15 5,4 C 74 % 1025,5 hPa 0,0 l/m 2,2 km/h (1 Bft) O-NO 62 0 min 0,000 mm 1,0 UV-I 146 W/m 1,1 C 5,4 C 8,0 km/h (2 Bft)
15.03.2016 11:20 5,6 C 74 % 1025,5 hPa 0,0 l/m 2,6 km/h (1 Bft) O 86 0 min 0,000 mm 1,0 UV-I 138 W/m 1,3 C 5,6 C 9,7 km/h (2 Bft)
15.03.2016 11:25 5,7 C 74 % 1025,5 hPa 0,0 l/m 2,1 km/h (1 Bft) O-NO 65 0 min 0,000 mm 0,9 UV-I 127 W/m 1,4 C 5,7 C 11,3 km/h (2 Bft)
15.03.2016 11:30 5,7 C 73 % 1025,6 hPa 0,0 l/m 6,7 km/h (2 Bft) O-NO 77 0 min 0,000 mm 0,9 UV-I 117 W/m 1,2 C 5,5 C 11,3 km/h (2 Bft)
15.03.2016 11:35 5,6 C 73 % 1025,6 hPa 0,0 l/m 6,9 km/h (2 Bft) O-NO 59 0 min 0,000 mm 0,7 UV-I 92 W/m 1,2 C 5,2 C 14,5 km/h (3 Bft)
15.03.2016 11:40 5,5 C 73 % 1025,7 hPa 0,0 l/m 4,7 km/h (1 Bft) NO 55 0 min 0,000 mm 0,7 UV-I 95 W/m 1,1 C 5,5 C 11,3 km/h (2 Bft)
15.03.2016 11:45 5,5 C 73 % 1025,6 hPa 0,0 l/m 1,5 km/h (1 Bft) O-SO 108 0 min 0,000 mm 0,9 UV-I 122 W/m 1,1 C 5,5 C 9,7 km/h (2 Bft)
15.03.2016 11:50 5,6 C 73 % 1025,6 hPa 0,0 l/m 5,8 km/h (2 Bft) O-NO 78 0 min 0,000 mm 1,1 UV-I 148 W/m 1,2 C 5,6 C 14,5 km/h (3 Bft)
15.03.2016 11:55 5,7 C 74 % 1025,6 hPa 0,0 l/m 4,1 km/h (1 Bft) O 100 0 min 0,000 mm 1,1 UV-I 155 W/m 1,4 C 5,7 C 11,3 km/h (2 Bft)
15.03.2016 12:00 5,7 C 75 % 1025,7 hPa 0,0 l/m 8,9 km/h (2 Bft) O-NO 57 0 min 0,000 mm 0,9 UV-I 110 W/m 1,6 C 3,6 C 16,1 km/h (3 Bft)
15.03.2016 12:05 5,7 C 76 % 1025,8 hPa 0,0 l/m 8,7 km/h (2 Bft) NO 51 0 min 0,051 mm 0,7 UV-I 91 W/m 1,8 C 3,8 C 16,1 km/h (3 Bft)
15.03.2016 12:10 5,6 C 77 % 1025,8 hPa 0,0 l/m 7,2 km/h (2 Bft) NO 49 0 min 0,000 mm 0,7 UV-I 82 W/m 1,9 C 4,9 C 19,3 km/h (3 Bft)
15.03.2016 12:15 5,4 C 78 % 1025,8 hPa 0,0 l/m 5,3 km/h (1 Bft) NO 56 0 min 0,000 mm 0,7 UV-I 74 W/m 1,9 C 5,4 C 16,1 km/h (3 Bft)
15.03.2016 12:20 5,2 C 80 % 1025,8 hPa 0,0 l/m 8,9 km/h (2 Bft) O-NO 76 0 min 0,000 mm 0,8 UV-I 90 W/m 2,0 C 3,1 C 17,7 km/h (3 Bft)
15.03.2016 12:25 4,9 C 83 % 1025,7 hPa 0,0 l/m 5,8 km/h (2 Bft) O-NO 70 0 min 0,000 mm 0,9 UV-I 109 W/m 2,3 C 4,9 C 17,7 km/h (3 Bft)
15.03.2016 12:30 4,9 C 84 % 1025,7 hPa 0,0 l/m 1,9 km/h (1 Bft) O-NO 57 0 min 0,000 mm 0,7 UV-I 87 W/m 2,4 C 4,9 C 11,3 km/h (2 Bft)
15.03.2016 12:35 4,8 C 85 % 1025,7 hPa 0,0 l/m 3,0 km/h (1 Bft) NO 44 0 min 0,000 mm 0,7 UV-I 93 W/m 2,5 C 4,8 C 12,9 km/h (3 Bft)
15.03.2016 12:40 4,7 C 85 % 1025,7 hPa 0,0 l/m 1,4 km/h (1 Bft) NO 55 0 min 0,000 mm 0,9 UV-I 113 W/m 2,4 C 4,7 C 11,3 km/h (2 Bft)
15.03.2016 12:45 4,7 C 86 % 1025,8 hPa 0,0 l/m 2,3 km/h (1 Bft) N-NO 18 0 min 0,000 mm 0,8 UV-I 105 W/m 2,6 C 4,7 C 14,5 km/h (3 Bft)
15.03.2016 12:50 4,8 C 87 % 1025,8 hPa 0,0 l/m 1,3 km/h (1 Bft) NO 36 0 min 0,000 mm 0,9 UV-I 108 W/m 2,8 C 4,8 C 12,9 km/h (3 Bft)
15.03.2016 12:55 4,7 C 86 % 1025,7 hPa 0,0 l/m 2,6 km/h (1 Bft) O-NO 65 0 min 0,000 mm 0,8 UV-I 100 W/m 2,6 C 4,7 C 12,9 km/h (3 Bft)
15.03.2016 13:00 4,7 C 86 % 1025,8 hPa 0,0 l/m 3,9 km/h (1 Bft) O 92 0 min 0,000 mm 0,8 UV-I 97 W/m 2,6 C 4,7 C 16,1 km/h (3 Bft)
15.03.2016 13:05 4,6 C 87 % 1025,8 hPa 0,0 l/m 3,5 km/h (1 Bft) NO 46 0 min 0,050 mm 0,8 UV-I 90 W/m 2,6 C 4,6 C 12,9 km/h (3 Bft)
15.03.2016 13:10 4,7 C 89 % 1025,7 hPa 0,0 l/m 0,0 km/h (0 Bft) NO 47 0 min 0,000 mm 0,9 UV-I 109 W/m 3,0 C 4,7 C 0,0 km/h (0 Bft)
15.03.2016 13:15 4,7 C 88 % 1025,7 hPa 0,0 l/m 0,0 km/h (0 Bft) NO 53 0 min 0,000 mm 0,9 UV-I 119 W/m 2,9 C 4,7 C 0,0 km/h (0 Bft)
15.03.2016 13:20 4,8 C 88 % 1025,7 hPa 0,0 l/m 0,0 km/h (0 Bft) NO 53 0 min 0,000 mm 0,8 UV-I 113 W/m 3,0 C 4,8 C 0,0 km/h (0 Bft)
15.03.2016 13:25 4,9 C 87 % 1025,6 hPa 0,0 l/m 0,1 km/h (0 Bft) NO 52 0 min 0,000 mm 0,8 UV-I 118 W/m 2,9 C 4,9 C 1,6 km/h (1 Bft)
15.03.2016 13:30 5,0 C 88 % 1025,6 hPa 0,0 l/m 0,0 km/h (0 Bft) NO 55 0 min 0,000 mm 0,9 UV-I 124 W/m 3,2 C 5,0 C 0,0 km/h (0 Bft)
15.03.2016 13:35 5,0 C 87 % 1025,5 hPa 0,0 l/m 1,3 km/h (1 Bft) NO 48 0 min 0,000 mm 1,1 UV-I 172 W/m 3,0 C 5,0 C 12,9 km/h (3 Bft)
15.03.2016 13:40 4,9 C 86 % 1025,6 hPa 0,0 l/m 1,3 km/h (1 Bft) O-SO 106 0 min 0,000 mm 1,1 UV-I 161 W/m 2,8 C 4,9 C 8,0 km/h (2 Bft)
15.03.2016 13:45 5,0 C 87 % 1025,6 hPa 0,0 l/m 0,9 km/h (0 Bft) NO 53 0 min 0,000 mm 0,8 UV-I 100 W/m 3,0 C 5,0 C 8,0 km/h (2 Bft)
15.03.2016 13:50 5,0 C 86 % 1025,5 hPa 0,0 l/m 4,6 km/h (1 Bft) O-NO 69 0 min 0,000 mm 0,7 UV-I 95 W/m 2,9 C 5,0 C 14,5 km/h (3 Bft)
15.03.2016 13:55 5,1 C 86 % 1025,4 hPa 0,0 l/m 2,8 km/h (1 Bft) N 11 0 min 0,000 mm 0,8 UV-I 115 W/m 3,0 C 5,1 C 16,1 km/h (3 Bft)
15.03.2016 14:00 5,1 C 85 % 1025,3 hPa 0,0 l/m 1,9 km/h (1 Bft) O-SO 116 0 min 0,000 mm 1,0 UV-I 133 W/m 2,8 C 5,1 C 11,3 km/h (2 Bft)
15.03.2016 14:05 5,2 C 85 % 1025,3 hPa 0,0 l/m 3,6 km/h (1 Bft) NO 55 0 min 0,051 mm 0,8 UV-I 110 W/m 2,9 C 5,2 C 16,1 km/h (3 Bft)
15.03.2016 14:10 5,3 C 84 % 1025,2 hPa 0,0 l/m 1,0 km/h (0 Bft) NO 52 0 min 0,000 mm 1,1 UV-I 164 W/m 2,8 C 5,3 C 6,4 km/h (2 Bft)
15.03.2016 14:15 5,4 C 85 % 1025,0 hPa 0,0 l/m 0,0 km/h (0 Bft) N 9 0 min 0,000 mm 1,3 UV-I 208 W/m 3,1 C 5,4 C 0,0 km/h (0 Bft)
15.03.2016 14:20 5,9 C 84 % 1025,1 hPa 0,0 l/m 0,0 km/h (0 Bft) O-NO 78 0 min 0,000 mm 1,3 UV-I 243 W/m 3,4 C 5,9 C 0,0 km/h (0 Bft)
15.03.2016 14:25 6,3 C 83 % 1025,2 hPa 0,0 l/m 0,0 km/h (0 Bft) O-NO 63 0 min 0,000 mm 1,1 UV-I 201 W/m 3,6 C 6,3 C 1,6 km/h (1 Bft)
15.03.2016 14:30 6,4 C 80 % 1025,2 hPa 0,0 l/m 3,4 km/h (1 Bft) O-NO 59 0 min 0,000 mm 1,0 UV-I 194 W/m 3,2 C 6,4 C 14,5 km/h (3 Bft)
15.03.2016 14:35 6,3 C 80 % 1025,3 hPa 0,0 l/m 4,8 km/h (1 Bft) NO 56 0 min 0,000 mm 0,7 UV-I 130 W/m 3,1 C 6,3 C 16,1 km/h (3 Bft)
15.03.2016 14:40 6,1 C 79 % 1025,3 hPa 0,0 l/m 6,1 km/h (2 Bft) NW 319 0 min 0,000 mm 0,7 UV-I 106 W/m 2,7 C 6,1 C 16,1 km/h (3 Bft)
15.03.2016 14:45 5,8 C 79 % 1025,2 hPa 0,0 l/m 10,7 km/h (2 Bft) O-NO 58 0 min 0,000 mm 0,7 UV-I 101 W/m 2,4 C 2,5 C 20,9 km/h (4 Bft)
15.03.2016 14:50 5,8 C 80 % 1025,3 hPa 0,0 l/m 8,5 km/h (2 Bft) NO 37 0 min 0,000 mm 0,8 UV-I 133 W/m 2,6 C 4,0 C 16,1 km/h (3 Bft)
15.03.2016 14:55 5,8 C 80 % 1025,3 hPa 0,0 l/m 8,1 km/h (2 Bft) O-NO 74 0 min 0,000 mm 0,6 UV-I 103 W/m 2,6 C 4,4 C 17,7 km/h (3 Bft)
15.03.2016 15:00 5,8 C 79 % 1025,3 hPa 0,0 l/m 4,5 km/h (1 Bft) O-NO 72 0 min 0,000 mm 0,6 UV-I 96 W/m 2,4 C 5,8 C 16,1 km/h (3 Bft)
15.03.2016 15:05 6,0 C 79 % 1025,2 hPa 0,0 l/m 5,3 km/h (1 Bft) O-NO 74 0 min 0,076 mm 1,0 UV-I 205 W/m 2,6 C 6,0 C 14,5 km/h (3 Bft)
15.03.2016 15:10 6,4 C 78 % 1025,2 hPa 0,0 l/m 8,1 km/h (2 Bft) O-NO 61 5 min 0,000 mm 1,2 UV-I 303 W/m 2,8 C 5,0 C 16,1 km/h (3 Bft)
15.03.2016 15:15 6,7 C 77 % 1025,2 hPa 0,0 l/m 3,8 km/h (1 Bft) NO 53 0 min 0,000 mm 1,0 UV-I 234 W/m 3,0 C 6,7 C 14,5 km/h (3 Bft)
15.03.2016 15:20 6,8 C 76 % 1025,0 hPa 0,0 l/m 2,4 km/h (1 Bft) N-NW 342 0 min 0,000 mm 1,0 UV-I 216 W/m 2,9 C 6,8 C 12,9 km/h (3 Bft)
15.03.2016 15:25 7,0 C 76 % 1024,9 hPa 0,0 l/m 0,0 km/h (0 Bft) N 5 0 min 0,000 mm 1,0 UV-I 181 W/m 3,1 C 7,0 C 0,0 km/h (0 Bft)
15.03.2016 15:30 7,3 C 74 % 1024,9 hPa 0,0 l/m 2,2 km/h (1 Bft) NO 38 0 min 0,000 mm 1,1 UV-I 236 W/m 3,0 C 7,3 C 11,3 km/h (2 Bft)
15.03.2016 15:35 8,4 C 72 % 1024,8 hPa 0,0 l/m 1,0 km/h (0 Bft) O-NO 68 5 min 0,000 mm 1,2 UV-I 366 W/m 3,7 C 8,4 C 9,7 km/h (2 Bft)
15.03.2016 15:40 8,2 C 69 % 1024,7 hPa 0,0 l/m 2,9 km/h (1 Bft) NO 50 5 min 0,000 mm 1,0 UV-I 266 W/m 2,9 C 8,2 C 11,3 km/h (2 Bft)
15.03.2016 15:45 8,4 C 70 % 1024,7 hPa 0,0 l/m 0,8 km/h (0 Bft) NO 56 5 min 0,000 mm 1,0 UV-I 282 W/m 3,3 C 8,4 C 8,0 km/h (2 Bft)
15.03.2016 15:50 7,9 C 67 % 1024,6 hPa 0,0 l/m 8,5 km/h (2 Bft) O-NO 65 5 min 0,000 mm 0,9 UV-I 263 W/m 2,2 C 6,3 C 19,3 km/h (3 Bft)
15.03.2016 15:55 7,7 C 68 % 1024,7 hPa 0,0 l/m 11,9 km/h (2 Bft) O-NO 65 5 min 0,000 mm 0,9 UV-I 250 W/m 2,2 C 3,9 C 22,5 km/h (4 Bft)
15.03.2016 16:00 7,7 C 69 % 1024,7 hPa 0,0 l/m 4,7 km/h (1 Bft) O-NO 58 5 min 0,000 mm 0,8 UV-I 254 W/m 2,4 C 7,7 C 24,1 km/h (4 Bft)
15.03.2016 16:05 7,4 C 69 % 1024,7 hPa 0,0 l/m 9,6 km/h (2 Bft) N-NO 32 0 min 0,127 mm 0,7 UV-I 138 W/m 2,1 C 5,0 C 22,5 km/h (4 Bft)
15.03.2016 16:10 7,2 C 70 % 1024,7 hPa 0,0 l/m 9,1 km/h (2 Bft) O-NO 64 0 min 0,000 mm 0,7 UV-I 101 W/m 2,1 C 5,1 C 20,9 km/h (4 Bft)
15.03.2016 16:15 7,0 C 71 % 1024,6 hPa 0,0 l/m 4,2 km/h (1 Bft) N-NO 13 0 min 0,000 mm 0,7 UV-I 101 W/m 2,1 C 7,0 C 17,7 km/h (3 Bft)
15.03.2016 16:20 7,1 C 71 % 1024,6 hPa 0,0 l/m 1,6 km/h (1 Bft) O-NO 58 0 min 0,000 mm 0,7 UV-I 96 W/m 2,2 C 7,1 C 11,3 km/h (2 Bft)
15.03.2016 16:25 7,3 C 70 % 1024,6 hPa 0,0 l/m 0,2 km/h (0 Bft) N-NW 348 0 min 0,000 mm 0,7 UV-I 113 W/m 2,2 C 7,3 C 4,8 km/h (1 Bft)
15.03.2016 16:30 7,3 C 70 % 1024,6 hPa 0,0 l/m 0,5 km/h (0 Bft) N-NO 14 0 min 0,000 mm 0,6 UV-I 94 W/m 2,2 C 7,3 C 9,7 km/h (2 Bft)
15.03.2016 16:35 7,2 C 70 % 1024,6 hPa 0,0 l/m 0,5 km/h (0 Bft) O-SO 103 0 min 0,000 mm 0,5 UV-I 110 W/m 2,1 C 7,2 C 12,9 km/h (3 Bft)
15.03.2016 16:40 7,2 C 71 % 1024,6 hPa 0,0 l/m 2,4 km/h (1 Bft) N 355 0 min 0,000 mm 0,0 UV-I 75 W/m 2,3 C 7,2 C 16,1 km/h (3 Bft)
15.03.2016 16:45 7,2 C 70 % 1024,7 hPa 0,0 l/m 1,0 km/h (0 Bft) N-NO 32 0 min 0,000 mm 0,0 UV-I 45 W/m 2,1 C 7,2 C 12,9 km/h (3 Bft)
15.03.2016 16:50 7,1 C 70 % 1024,6 hPa 0,0 l/m 0,2 km/h (0 Bft) NO 35 0 min 0,000 mm 0,0 UV-I 37 W/m 2,0 C 7,1 C 6,4 km/h (2 Bft)
15.03.2016 16:55 7,1 C 70 % 1024,5 hPa 0,0 l/m 0,1 km/h (0 Bft) NO 50 0 min 0,000 mm 0,0 UV-I 37 W/m 2,0 C 7,1 C 1,6 km/h (1 Bft)
15.03.2016 17:00 7,1 C 69 % 1024,6 hPa 0,0 l/m 3,2 km/h (1 Bft) O-NO 65 0 min 0,000 mm 0,0 UV-I 47 W/m 1,8 C 7,1 C 16,1 km/h (3 Bft)
15.03.2016 17:05 7,0 C 70 % 1024,6 hPa 0,0 l/m 4,5 km/h (1 Bft) NO 38 0 min 0,051 mm 0,0 UV-I 49 W/m 1,9 C 7,0 C 16,1 km/h (3 Bft)
15.03.2016 17:10 7,0 C 69 % 1024,6 hPa 0,0 l/m 3,7 km/h (1 Bft) O-NO 63 0 min 0,000 mm 0,0 UV-I 45 W/m 1,7 C 7,0 C 17,7 km/h (3 Bft)
15.03.2016 17:15 7,0 C 68 % 1024,6 hPa 0,0 l/m 8,0 km/h (2 Bft) NO 47 0 min 0,000 mm 0,0 UV-I 45 W/m 1,5 C 5,7 C 16,1 km/h (3 Bft)
15.03.2016 17:20 7,1 C 68 % 1024,6 hPa 0,0 l/m 9,9 km/h (2 Bft) O-NO 71 0 min 0,000 mm 0,0 UV-I 42 W/m 1,6 C 4,5 C 17,7 km/h (3 Bft)
15.03.2016 17:25 7,0 C 68 % 1024,7 hPa 0,0 l/m 8,6 km/h (2 Bft) NO 35 0 min 0,000 mm 0,0 UV-I 44 W/m 1,5 C 5,3 C 19,3 km/h (3 Bft)
15.03.2016 17:30 7,0 C 67 % 1024,8 hPa 0,0 l/m 10,3 km/h (2 Bft) O-NO 63 0 min 0,000 mm 0,0 UV-I 38 W/m 1,3 C 4,1 C 19,3 km/h (3 Bft)
15.03.2016 17:35 7,0 C 67 % 1024,8 hPa 0,0 l/m 4,9 km/h (1 Bft) NO 42 0 min 0,000 mm 0,0 UV-I 49 W/m 1,3 C 7,0 C 16,1 km/h (3 Bft)
15.03.2016 17:40 7,0 C 67 % 1024,8 hPa 0,0 l/m 5,4 km/h (1 Bft) O-NO 57 0 min 0,000 mm 0,0 UV-I 54 W/m 1,3 C 7,0 C 19,3 km/h (3 Bft)
15.03.2016 17:45 7,0 C 67 % 1024,7 hPa 0,0 l/m 4,4 km/h (1 Bft) N-NO 26 0 min 0,000 mm 0,0 UV-I 52 W/m 1,3 C 7,0 C 12,9 km/h (3 Bft)
15.03.2016 17:50 6,9 C 66 % 1024,7 hPa 0,0 l/m 3,2 km/h (1 Bft) N-NO 27 0 min 0,000 mm 0,0 UV-I 40 W/m 1,0 C 6,9 C 19,3 km/h (3 Bft)
15.03.2016 17:55 6,9 C 66 % 1024,7 hPa 0,0 l/m 4,0 km/h (1 Bft) N 5 0 min 0,000 mm 0,0 UV-I 31 W/m 1,0 C 6,9 C 17,7 km/h (3 Bft)
15.03.2016 18:00 6,9 C 67 % 1024,8 hPa 0,0 l/m 0,1 km/h (0 Bft) NO 56 0 min 0,000 mm 0,0 UV-I 27 W/m 1,2 C 6,9 C 3,2 km/h (1 Bft)
15.03.2016 18:05 6,9 C 66 % 1024,8 hPa 0,0 l/m 3,4 km/h (1 Bft) O-NO 66 0 min 0,051 mm 0,0 UV-I 25 W/m 1,0 C 6,9 C 17,7 km/h (3 Bft)
15.03.2016 18:10 6,8 C 66 % 1024,8 hPa 0,0 l/m 3,6 km/h (1 Bft) N-NO 28 0 min 0,000 mm 0,0 UV-I 16 W/m 0,9 C 6,8 C 11,3 km/h (2 Bft)
15.03.2016 18:15 6,8 C 66 % 1024,9 hPa 0,0 l/m 2,2 km/h (1 Bft) N 10 0 min 0,000 mm 0,0 UV-I 12 W/m 0,9 C 6,8 C 14,5 km/h (3 Bft)
15.03.2016 18:20 6,8 C 65 % 1024,9 hPa 0,0 l/m 5,2 km/h (1 Bft) NO 44 5 min 0,000 mm 0,0 UV-I 11 W/m 0,7 C 6,8 C 12,9 km/h (3 Bft)
15.03.2016 18:25 6,7 C 66 % 1025,0 hPa 0,0 l/m 0,2 km/h (0 Bft) NO 44 0 min 0,000 mm 0,0 UV-I 8 W/m 0,8 C 6,7 C 4,8 km/h (1 Bft)
15.03.2016 18:30 6,7 C 66 % 1025,0 hPa 0,0 l/m 0,1 km/h (0 Bft) NO 48 0 min 0,000 mm 0,0 UV-I 0 W/m 0,8 C 6,7 C 3,2 km/h (1 Bft)
15.03.2016 18:35 6,6 C 67 % 1025,0 hPa 0,0 l/m 2,2 km/h (1 Bft) NO 43 0 min 0,000 mm 0,0 UV-I 0 W/m 0,9 C 6,6 C 11,3 km/h (2 Bft)
15.03.2016 18:40 6,5 C 67 % 1025,0 hPa 0,0 l/m 0,7 km/h (0 Bft) N 360 0 min 0,000 mm 0,0 UV-I 0 W/m 0,8 C 6,5 C 11,3 km/h (2 Bft)
15.03.2016 18:45 6,4 C 67 % 1025,0 hPa 0,0 l/m 4,2 km/h (1 Bft) SO 124 0 min 0,000 mm 0,0 UV-I 0 W/m 0,7 C 6,4 C 12,9 km/h (3 Bft)
15.03.2016 18:50 6,4 C 67 % 1025,0 hPa 0,0 l/m 3,2 km/h (1 Bft) O-NO 57 0 min 0,000 mm 0,0 UV-I 0 W/m 0,7 C 6,4 C 11,3 km/h (2 Bft)
15.03.2016 18:55 6,3 C 67 % 1025,1 hPa 0,0 l/m 3,6 km/h (1 Bft) N-NO 32 0 min 0,000 mm 0,0 UV-I 0 W/m 0,6 C 6,3 C 12,9 km/h (3 Bft)
15.03.2016 19:00 6,3 C 67 % 1025,1 hPa 0,0 l/m 0,5 km/h (0 Bft) NO 41 0 min 0,000 mm 0,0 UV-I 0 W/m 0,6 C 6,3 C 6,4 km/h (2 Bft)
15.03.2016 19:05 6,2 C 68 % 1025,2 hPa 0,0 l/m 1,1 km/h (1 Bft) NO 42 0 min 0,025 mm 0,0 UV-I 0 W/m 0,7 C 6,2 C 8,0 km/h (2 Bft)
15.03.2016 19:10 6,2 C 68 % 1025,3 hPa 0,0 l/m 2,8 km/h (1 Bft) N-NO 31 0 min 0,000 mm 0,0 UV-I 0 W/m 0,7 C 6,2 C 14,5 km/h (3 Bft)
15.03.2016 19:15 6,2 C 68 % 1025,3 hPa 0,0 l/m 6,3 km/h (2 Bft) NO 35 0 min 0,000 mm 0,0 UV-I 0 W/m 0,7 C 6,2 C 12,9 km/h (3 Bft)
15.03.2016 19:20 6,2 C 68 % 1025,4 hPa 0,0 l/m 5,7 km/h (1 Bft) O-NO 57 0 min 0,000 mm 0,0 UV-I 0 W/m 0,7 C 6,2 C 14,5 km/h (3 Bft)
15.03.2016 19:25 6,2 C 68 % 1025,4 hPa 0,0 l/m 2,9 km/h (1 Bft) NO 54 0 min 0,000 mm 0,0 UV-I 0 W/m 0,7 C 6,2 C 12,9 km/h (3 Bft)
15.03.2016 19:30 6,1 C 68 % 1025,5 hPa 0,0 l/m 5,9 km/h (2 Bft) NO 51 0 min 0,000 mm 0,0 UV-I 0 W/m 0,6 C 6,1 C 16,1 km/h (3 Bft)
15.03.2016 19:35 6,1 C 68 % 1025,4 hPa 0,0 l/m 7,6 km/h (2 Bft) NO 42 0 min 0,000 mm 0,0 UV-I 0 W/m 0,6 C 5,1 C 16,1 km/h (3 Bft)
15.03.2016 19:40 6,1 C 68 % 1025,5 hPa 0,0 l/m 3,6 km/h (1 Bft) O-NO 67 0 min 0,000 mm 0,0 UV-I 0 W/m 0,6 C 6,1 C 12,9 km/h (3 Bft)
15.03.2016 19:45 6,0 C 68 % 1025,5 hPa 0,0 l/m 0,9 km/h (0 Bft) N-NO 24 0 min 0,000 mm 0,0 UV-I 0 W/m 0,6 C 6,0 C 11,3 km/h (2 Bft)
15.03.2016 19:50 5,8 C 69 % 1025,6 hPa 0,0 l/m 2,2 km/h (1 Bft) O-NO 63 0 min 0,000 mm 0,0 UV-I 0 W/m 0,6 C 5,8 C 14,5 km/h (3 Bft)
15.03.2016 19:55 5,8 C 68 % 1025,7 hPa 0,0 l/m 5,9 km/h (2 Bft) O-NO 65 0 min 0,000 mm 0,0 UV-I 0 W/m 0,4 C 5,8 C 14,5 km/h (3 Bft)
15.03.2016 20:00 5,7 C 69 % 1025,8 hPa 0,0 l/m 0,7 km/h (0 Bft) O-NO 57 0 min 0,000 mm 0,0 UV-I 0 W/m 0,5 C 5,7 C 8,0 km/h (2 Bft)
15.03.2016 20:05 5,7 C 68 % 1025,7 hPa 0,0 l/m 5,8 km/h (2 Bft) NO 53 0 min 0,026 mm 0,0 UV-I 0 W/m 0,3 C 5,7 C 20,9 km/h (4 Bft)
15.03.2016 20:10 5,6 C 68 % 1025,8 hPa 0,0 l/m 5,2 km/h (1 Bft) NO 56 0 min 0,000 mm 0,0 UV-I 0 W/m 0,2 C 5,6 C 12,9 km/h (3 Bft)
15.03.2016 20:15 5,6 C 69 % 1025,8 hPa 0,0 l/m 3,6 km/h (1 Bft) NO 47 0 min 0,000 mm 0,0 UV-I 0 W/m 0,4 C 5,6 C 11,3 km/h (2 Bft)
15.03.2016 20:20 5,5 C 69 % 1025,8 hPa 0,0 l/m 4,7 km/h (1 Bft) NO 56 0 min 0,000 mm 0,0 UV-I 0 W/m 0,3 C 5,5 C 9,7 km/h (2 Bft)
15.03.2016 20:25 5,4 C 70 % 1025,9 hPa 0,0 l/m 5,3 km/h (1 Bft) O-NO 67 0 min 0,000 mm 0,0 UV-I 0 W/m 0,4 C 5,4 C 12,9 km/h (3 Bft)
15.03.2016 20:30 5,3 C 71 % 1025,9 hPa 0,0 l/m 8,7 km/h (2 Bft) NO 49 0 min 0,000 mm 0,0 UV-I 0 W/m 0,5 C 3,4 C 20,9 km/h (4 Bft)
15.03.2016 20:35 5,2 C 72 % 1026,0 hPa 0,0 l/m 6,9 km/h (2 Bft) O 94 0 min 0,000 mm 0,0 UV-I 0 W/m 0,6 C 4,8 C 12,9 km/h (3 Bft)
15.03.2016 20:40 5,2 C 72 % 1025,9 hPa 0,0 l/m 4,7 km/h (1 Bft) O-NO 65 0 min 0,000 mm 0,0 UV-I 0 W/m 0,6 C 5,2 C 12,9 km/h (3 Bft)
15.03.2016 20:45 5,2 C 73 % 1025,9 hPa 0,0 l/m 7,0 km/h (2 Bft) NO 48 0 min 0,000 mm 0,0 UV-I 0 W/m 0,8 C 4,7 C 16,1 km/h (3 Bft)
15.03.2016 20:50 5,2 C 73 % 1026,0 hPa 0,0 l/m 5,4 km/h (1 Bft) NO 49 0 min 0,000 mm 0,0 UV-I 0 W/m 0,8 C 5,2 C 16,1 km/h (3 Bft)
15.03.2016 20:55 5,2 C 72 % 1026,0 hPa 0,0 l/m 7,1 km/h (2 Bft) NO 40 0 min 0,000 mm 0,0 UV-I 0 W/m 0,6 C 4,6 C 19,3 km/h (3 Bft)
15.03.2016 21:00 5,2 C 71 % 1026,0 hPa 0,0 l/m 4,7 km/h (1 Bft) O-NO 60 0 min 0,000 mm 0,0 UV-I 0 W/m 0,4 C 5,2 C 17,7 km/h (3 Bft)
15.03.2016 21:05 5,1 C 72 % 1026,1 hPa 0,0 l/m 9,2 km/h (2 Bft) NO 53 0 min 0,025 mm 0,0 UV-I 0 W/m 0,5 C 2,8 C 16,1 km/h (3 Bft)
15.03.2016 21:10 5,1 C 72 % 1026,1 hPa 0,0 l/m 7,6 km/h (2 Bft) O-NO 61 0 min 0,000 mm 0,0 UV-I 0 W/m 0,5 C 4,0 C 19,3 km/h (3 Bft)
15.03.2016 21:15 5,0 C 73 % 1026,1 hPa 0,0 l/m 3,7 km/h (1 Bft) NO 54 0 min 0,000 mm 0,0 UV-I 0 W/m 0,6 C 5,0 C 9,7 km/h (2 Bft)
15.03.2016 21:20 4,9 C 73 % 1026,1 hPa 0,0 l/m 3,4 km/h (1 Bft) O-NO 61 0 min 0,000 mm 0,0 UV-I 0 W/m 0,5 C 4,9 C 9,7 km/h (2 Bft)
15.03.2016 21:25 4,8 C 74 % 1026,1 hPa 0,0 l/m 2,9 km/h (1 Bft) O-NO 71 0 min 0,000 mm 0,0 UV-I 0 W/m 0,6 C 4,8 C 8,0 km/h (2 Bft)
15.03.2016 21:30 4,7 C 75 % 1026,1 hPa 0,0 l/m 3,9 km/h (1 Bft) O-NO 61 0 min 0,000 mm 0,0 UV-I 0 W/m 0,7 C 4,7 C 11,3 km/h (2 Bft)
15.03.2016 21:35 4,6 C 76 % 1026,1 hPa 0,0 l/m 3,7 km/h (1 Bft) O-NO 70 0 min 0,000 mm 0,0 UV-I 0 W/m 0,7 C 4,6 C 11,3 km/h (2 Bft)
15.03.2016 21:40 4,4 C 76 % 1026,0 hPa 0,0 l/m 5,2 km/h (1 Bft) O-NO 74 0 min 0,000 mm 0,0 UV-I 0 W/m 0,5 C 4,4 C 12,9 km/h (3 Bft)
15.03.2016 21:45 4,4 C 77 % 1026,1 hPa 0,0 l/m 4,2 km/h (1 Bft) O-NO 65 0 min 0,000 mm 0,0 UV-I 0 W/m 0,7 C 4,4 C 11,3 km/h (2 Bft)
15.03.2016 21:50 4,3 C 77 % 1026,1 hPa 0,0 l/m 4,5 km/h (1 Bft) NO 56 0 min 0,000 mm 0,0 UV-I 0 W/m 0,6 C 4,3 C 9,7 km/h (2 Bft)
15.03.2016 21:55 4,3 C 77 % 1026,2 hPa 0,0 l/m 5,9 km/h (2 Bft) NO 53 0 min 0,000 mm 0,0 UV-I 0 W/m 0,6 C 4,3 C 12,9 km/h (3 Bft)
15.03.2016 22:00 4,3 C 78 % 1026,2 hPa 0,0 l/m 7,4 km/h (2 Bft) NO 50 0 min 0,000 mm 0,0 UV-I 0 W/m 0,8 C 3,4 C 11,3 km/h (2 Bft)
15.03.2016 22:05 4,3 C 78 % 1026,2 hPa 0,0 l/m 1,5 km/h (1 Bft) O-NO 63 0 min 0,026 mm 0,0 UV-I 0 W/m 0,8 C 4,3 C 8,0 km/h (2 Bft)
15.03.2016 22:10 4,3 C 78 % 1026,2 hPa 0,0 l/m 5,1 km/h (1 Bft) O-NO 65 0 min 0,000 mm 0,0 UV-I 0 W/m 0,8 C 4,3 C 11,3 km/h (2 Bft)
15.03.2016 22:15 4,3 C 78 % 1026,2 hPa 0,0 l/m 4,5 km/h (1 Bft) NO 48 0 min 0,000 mm 0,0 UV-I 0 W/m 0,8 C 4,3 C 16,1 km/h (3 Bft)
15.03.2016 22:20 4,3 C 78 % 1026,3 hPa 0,0 l/m 2,5 km/h (1 Bft) O 87 0 min 0,000 mm 0,0 UV-I 0 W/m 0,8 C 4,3 C 12,9 km/h (3 Bft)
15.03.2016 22:25 4,3 C 79 % 1026,3 hPa 0,0 l/m 4,6 km/h (1 Bft) NO 48 0 min 0,000 mm 0,0 UV-I 0 W/m 1,0 C 4,3 C 16,1 km/h (3 Bft)
15.03.2016 22:30 4,3 C 79 % 1026,3 hPa 0,0 l/m 9,2 km/h (2 Bft) O 81 0 min 0,000 mm 0,0 UV-I 0 W/m 1,0 C 1,9 C 19,3 km/h (3 Bft)
15.03.2016 22:35 4,3 C 80 % 1026,4 hPa 0,0 l/m 6,3 km/h (2 Bft) O-SO 118 0 min 0,000 mm 0,0 UV-I 0 W/m 1,2 C 4,3 C 14,5 km/h (3 Bft)
15.03.2016 22:40 4,2 C 80 % 1026,4 hPa 0,0 l/m 10,3 km/h (2 Bft) O 98 0 min 0,000 mm 0,0 UV-I 0 W/m 1,1 C 1,0 C 19,3 km/h (3 Bft)
15.03.2016 22:45 4,2 C 81 % 1026,5 hPa 0,0 l/m 7,0 km/h (2 Bft) O-NO 59 0 min 0,000 mm 0,0 UV-I 0 W/m 1,2 C 3,7 C 19,3 km/h (3 Bft)
15.03.2016 22:50 4,2 C 81 % 1026,5 hPa 0,0 l/m 10,2 km/h (2 Bft) O-NO 65 0 min 0,000 mm 0,0 UV-I 0 W/m 1,2 C 1,0 C 19,3 km/h (3 Bft)
15.03.2016 22:55 4,1 C 81 % 1026,6 hPa 0,0 l/m 10,3 km/h (2 Bft) NO 46 0 min 0,000 mm 0,0 UV-I 0 W/m 1,1 C 0,9 C 24,1 km/h (4 Bft)
15.03.2016 23:00 4,1 C 81 % 1026,6 hPa 0,0 l/m 8,4 km/h (2 Bft) NO 54 0 min 0,000 mm 0,0 UV-I 0 W/m 1,1 C 2,3 C 16,1 km/h (3 Bft)
15.03.2016 23:05 4,1 C 81 % 1026,6 hPa 0,0 l/m 6,3 km/h (2 Bft) O-NO 57 0 min 0,025 mm 0,0 UV-I 0 W/m 1,1 C 4,1 C 14,5 km/h (3 Bft)
15.03.2016 23:10 4,0 C 81 % 1026,6 hPa 0,0 l/m 9,0 km/h (2 Bft) O-NO 63 0 min 0,000 mm 0,0 UV-I 0 W/m 1,0 C 1,7 C 20,9 km/h (4 Bft)
15.03.2016 23:15 3,9 C 81 % 1026,6 hPa 0,0 l/m 7,9 km/h (2 Bft) NO 55 0 min 0,000 mm 0,0 UV-I 0 W/m 0,9 C 2,5 C 17,7 km/h (3 Bft)
15.03.2016 23:20 3,9 C 80 % 1026,7 hPa 0,0 l/m 8,4 km/h (2 Bft) O-NO 77 0 min 0,000 mm 0,0 UV-I 0 W/m 0,8 C 2,1 C 17,7 km/h (3 Bft)
15.03.2016 23:25 3,9 C 80 % 1026,7 hPa 0,0 l/m 11,1 km/h (2 Bft) NO 49 0 min 0,000 mm 0,0 UV-I 0 W/m 0,8 C 0,1 C 20,9 km/h (4 Bft)
15.03.2016 23:30 3,8 C 80 % 1026,7 hPa 0,0 l/m 11,5 km/h (2 Bft) NO 44 0 min 0,000 mm 0,0 UV-I 0 W/m 0,7 C -0,3 C 20,9 km/h (4 Bft)
15.03.2016 23:35 3,8 C 80 % 1026,7 hPa 0,0 l/m 11,2 km/h (2 Bft) O 100 0 min 0,000 mm 0,0 UV-I 0 W/m 0,7 C -0,1 C 22,5 km/h (4 Bft)
15.03.2016 23:40 3,7 C 80 % 1026,8 hPa 0,0 l/m 12,8 km/h (3 Bft) NO 49 0 min 0,000 mm 0,0 UV-I 0 W/m 0,6 C -1,2 C 22,5 km/h (4 Bft)
15.03.2016 23:45 3,7 C 80 % 1026,7 hPa 0,0 l/m 10,2 km/h (2 Bft) N-NO 33 0 min 0,000 mm 0,0 UV-I 0 W/m 0,6 C 0,5 C 19,3 km/h (3 Bft)
15.03.2016 23:50 3,6 C 80 % 1026,5 hPa 0,0 l/m 12,0 km/h (2 Bft) O 88 0 min 0,000 mm 0,0 UV-I 0 W/m 0,5 C -0,9 C 20,9 km/h (4 Bft)
15.03.2016 23:55 3,6 C 80 % 1026,7 hPa 0,0 l/m 9,5 km/h (2 Bft) O-NO 63 0 min 0,000 mm 0,0 UV-I 0 W/m 0,5 C 0,9 C 19,3 km/h (3 Bft)
_ Min-Zeit 03:55 18:20 16:55 - 00:00 - - - - - - 03:40 04:00 00:00
Minimum _ -2,9 C 65 % 1024,5 hPa - 0,0 km/h (0 Bft) - - - - - - -5,0 C -2,9 C 0,0 km/h (0 Bft)
_ Max-Zeit 15:40 13:10 00:00 00:00 23:40 - - 07:55 16:05 14:15 15:35 15:35 15:35 16:00
Maximum _ 8,5 C 89 % 1029,0 hPa 0,0 l/m 12,8 km/h
NO (3 Bft)
- - 5 min 0,127 mm 1,3 UV-I 366 W/m 3,7 C 8,4 C 24,1 km/h
O-NO (4 Bft)
Durchschnitt _ 2,7 C 79 % 1026,4 hPa #0,0 l/m 2,5 km/h (1 Bft) O-NO - #1:10 h #0,762 mm 0,8 UV-I 112 W/m -0,7 C 2,3 C 7,2 km/h (2 Bft)